DW8790 Maspalomas ES current weather conditions

sailwx.info

Wind from 215 at 4 knots gusting 8

Air temperature 20.6° C
Dewpoint 13.7° C

Last reported at 2016-May-06 17:45 UTC.
Time now 2016-May-06 18:43 UTC

Location: N 27°46' W 015°34'.
View on Google Maps.

See reports from other nearby stations

  
Tides and Currents Weather Stations Pressure Air Temp Water Temp Dewpoint Dewpoint Depression Visibility Wind Speed Wind Dir Waves Ship Positions
date/time (UTC)wind fromknots sea level pressurealtimeterstation pressurevisibilityair tempwater tempwave heightnotes
2016-May-06 17:45 215 4 gusting 8 20.6
2016-May-06 17:40 209 2 gusting 7 20.6
2016-May-06 17:35 226 4 gusting 10 20.6
2016-May-06 17:30 193 5 gusting 8 20.6
2016-May-06 17:25 204 5 gusting 6 20.6
2016-May-06 17:20 199 2 gusting 10 20.6
2016-May-06 17:15 236 4 gusting 10 21.1
2016-May-06 17:10 226 3 gusting 10 21.1
2016-May-06 17:05 202 4 gusting 13 20.6
2016-May-06 17:00 213 5 gusting 10 21.1
2016-May-06 16:55 231 4 gusting 11 21.1
2016-May-06 16:50 220 5 gusting 11 20.6
2016-May-06 16:45 203 5 gusting 10 21.1
2016-May-06 16:40 233 4 gusting 7 21.1
2016-May-06 16:35 247 4 gusting 8 20.6
2016-May-06 16:30 213 3 gusting 11 21.1
2016-May-06 16:25 211 5 gusting 10 21.1
2016-May-06 16:20 179 5 gusting 12 21.1
2016-May-06 16:15 209 6 gusting 10 21.7
2016-May-06 16:10 224 5 gusting 7 21.7
2016-May-06 16:05 221 4 gusting 11 20.6
2016-May-06 16:00 197 6 gusting 11 20.6
2016-May-06 15:55 217 6 gusting 13 21.1
2016-May-06 15:50 230 6 gusting 12 21.1
2016-May-06 15:45 201 6 gusting 11 21.1
2016-May-06 15:40 201 5 gusting 13 21.1
2016-May-06 15:35 224 6 gusting 11 21.1
2016-May-06 15:30 212 7 gusting 12 21.1
2016-May-06 15:25 214 7 gusting 13 21.1
2016-May-06 15:20 201 6 gusting 13 21.7
2016-May-06 15:15 186 5 gusting 11 21.7
2016-May-06 15:10 211 7 gusting 10 21.7
2016-May-06 15:05 196 6 gusting 13 21.1
2016-May-06 15:00 202 6 gusting 11 21.1
2016-May-06 14:55 178 6 gusting 12 20.6
2016-May-06 14:50 204 6 gusting 12 21.1
2016-May-06 14:45 205 6 gusting 12 21.1
2016-May-06 14:40 192 6 gusting 10 20.6
2016-May-06 14:35 194 6 gusting 12 20.6
2016-May-06 14:30 218 6 gusting 11 20.6
2016-May-06 14:25 215 5 gusting 10 20.6
2016-May-06 14:20 189 5 gusting 7 20.6
2016-May-06 14:15 215 4 gusting 10 20.6
2016-May-06 14:10 193 4 gusting 10 20.6
2016-May-06 14:05 230 6 gusting 10 20.6
2016-May-06 14:00 212 6 gusting 10 20.6
2016-May-06 13:50 232 5 gusting 8 20.6
2016-May-06 13:45 228 7 gusting 11 20.6
2016-May-06 13:40 191 6 gusting 12 20.6
2016-May-06 13:35 176 6 gusting 10 20.6
2016-May-06 13:30 199 5 gusting 8 20.6
2016-May-06 13:25 204 5 gusting 11 20.6
2016-May-06 13:20 184 5 gusting 11 20.6
2016-May-06 13:15 176 5 gusting 10 20.6
2016-May-06 13:10 162 5 gusting 7 20.6
2016-May-06 13:05 189 4 gusting 10 20.6
2016-May-06 13:00 164 3 gusting 6 20.6
2016-May-06 12:55 172 5 gusting 10 20.6
2016-May-06 12:50 160 4 gusting 8 20.6
2016-May-06 12:40 181 4 gusting 8 20.0
2016-May-06 12:35 191 5 gusting 11 20.6
2016-May-06 12:30 205 4 gusting 6 20.0
2016-May-06 12:25 221 4 gusting 7 20.6
2016-May-06 12:20 165 2 gusting 8 20.6
2016-May-06 12:15 212 4 gusting 10 20.6
2016-May-06 12:10 198 3 gusting 8 20.0
2016-May-06 12:05 206 3 gusting 7 20.6
2016-May-06 12:00 150 2 gusting 10 20.0
2016-May-06 11:55 166 4 gusting 10 20.0
2016-May-06 11:50 137 3 gusting 8 20.6
2016-May-06 11:45 141 3 gusting 10 20.6
2016-May-06 11:40 139 4 gusting 11 20.6
2016-May-06 11:35 152 4 gusting 8 20.6
2016-May-06 11:30 149 1 gusting 8 20.6
2016-May-06 11:25 149 3 gusting 8 20.6
2016-May-06 11:20 159 2 gusting 7 21.1
2016-May-06 11:15 201 5 gusting 7 21.7
2016-May-06 11:10 181 2 gusting 7 21.1
2016-May-06 11:05 187 3 gusting 8 20.6
2016-May-06 11:00 198 4 gusting 7 20.6
2016-May-06 10:55 198 5 gusting 10 20.0
2016-May-06 10:50 183 5 gusting 10 20.0
2016-May-06 10:45 164 5 gusting 8 20.0
2016-May-06 10:40 242 5 gusting 10 20.0
2016-May-06 10:35 233 6 gusting 10 20.6
2016-May-06 10:30 209 5 gusting 10 20.6
2016-May-06 10:25 154 5 gusting 7 21.1
2016-May-06 10:20 153 4 gusting 6 20.6
2016-May-06 10:15 193 4 gusting 6 20.6
2016-May-06 10:10 231 2 gusting 8 20.6
2016-May-06 10:05 165 4 gusting 10 20.6
2016-May-06 10:00 200 4 gusting 6 21.1
2016-May-06 09:55 230 3 gusting 6 20.6
2016-May-06 09:50 222 4 gusting 7 20.6
2016-May-06 09:45 200 3 gusting 6 20.6
2016-May-06 09:40 202 3 gusting 6 20.6
2016-May-06 09:35 203 5 gusting 10 20.6
2016-May-06 09:30 201 2 gusting 6 20.0
2016-May-06 09:25 203 3 gusting 6 20.6
2016-May-06 09:20 227 4 gusting 6 20.6
2016-May-06 09:15 197 2 gusting 6 20.0
2016-May-06 09:10 226 2 gusting 5 20.0
2016-May-06 09:05 206 2 gusting 6 20.0
2016-May-06 09:00 227 3 gusting 5 19.4
2016-May-06 08:55 205 2 gusting 4 19.4
2016-May-06 08:50 224 2 gusting 6 19.4
2016-May-06 08:45 218 3 gusting 6 19.4
2016-May-06 08:40 199 2 gusting 5 19.4
2016-May-06 08:35 211 4 gusting 5 19.4
2016-May-06 08:30 226 3 gusting 6 19.4
2016-May-06 08:25 254 2 gusting 5 19.4
2016-May-06 08:20 300 1 gusting 4 19.4
2016-May-06 08:15 254 2 gusting 5 18.9
2016-May-06 08:10 271 2 gusting 5 18.9
2016-May-06 08:05 266 3 gusting 5 19.4
2016-May-06 08:00 252 1 gusting 2 18.9
2016-May-06 07:55 304 2 gusting 4 18.9
2016-May-06 07:50 287 1 gusting 2 18.9
2016-May-06 07:45 300 1 gusting 2 18.9
2016-May-06 07:40 300 2 gusting 2 18.3
2016-May-06 07:35 300 1 gusting 2 18.3
2016-May-06 07:30 281 1 gusting 2 18.3
2016-May-06 07:25 281 0 gusting 2 18.3
2016-May-06 07:20 281 1 gusting 2 18.3
2016-May-06 07:15 281 1 gusting 2 18.3
2016-May-06 07:10 281 0 gusting 2 18.3
2016-May-06 07:05 307 0 gusting 2 18.3
2016-May-06 07:00 252 1 gusting 4 18.3
2016-May-06 06:55 282 2 gusting 5 18.3
2016-May-06 06:50 274 2 gusting 6 18.3
2016-May-06 06:45 271 1 gusting 4 18.3
2016-May-06 06:40 268 2 gusting 5 18.3
2016-May-06 06:35 233 2 gusting 5 18.3
2016-May-06 06:30 252 2 gusting 5 18.3
2016-May-06 06:25 245 4 gusting 6 18.3
2016-May-06 06:20 227 1 gusting 2 18.3
2016-May-06 06:15 228 2 gusting 4 18.3
2016-May-06 06:10 237 2 gusting 4 18.3
2016-May-06 06:05 233 2 gusting 4 18.3
2016-May-06 06:00 247 2 gusting 2 18.3
2016-May-06 05:55 229 2 gusting 4 18.3
2016-May-06 05:50 251 2 gusting 4 18.3
2016-May-06 05:45 237 2 gusting 4 18.3
2016-May-06 05:40 250 1 gusting 2 18.3
2016-May-06 05:35 250 0 gusting 2 18.3
2016-May-06 05:30 250 0 gusting 2 18.3
2016-May-06 05:25 250 18.3
2016-May-06 05:20 250 0 gusting 1 18.3
2016-May-06 05:15 250 0 gusting 1 18.3
2016-May-06 05:10 250 0 gusting 1 18.3
2016-May-06 05:05 250 0 gusting 1 18.3
2016-May-06 05:00 250 0 gusting 2 18.3
2016-May-06 04:55 250 1 gusting 2 18.3
2016-May-06 04:50 250 2 gusting 4 18.3
2016-May-06 04:45 250 2 gusting 2 18.3
2016-May-06 04:40 250 1 gusting 2 18.3
2016-May-06 04:35 250 2 gusting 2 18.3
2016-May-06 04:30 250 1 gusting 2 18.3
2016-May-06 04:25 244 2 gusting 4 18.3
2016-May-06 04:20 257 2 gusting 4 18.3
2016-May-06 04:15 267 2 gusting 2 18.3
2016-May-06 04:10 267 1 gusting 2 18.3
2016-May-06 04:05 267 0 gusting 2 18.3
2016-May-06 04:00 267 0 gusting 2 18.3
2016-May-06 03:55 267 18.3
2016-May-06 03:50 267 0 gusting 2 18.3
2016-May-06 03:45 267 1 gusting 2 18.3
2016-May-06 03:40 267 0 gusting 2 18.3
2016-May-06 03:35 267 0 gusting 2 18.3
2016-May-06 03:30 267 1 gusting 2 18.3
2016-May-06 03:25 267 1 gusting 2 18.3
2016-May-06 03:20 267 18.3
2016-May-06 03:15 267 18.3
2016-May-06 03:10 267 0 gusting 2 18.3
2016-May-06 03:05 267 1 gusting 2 18.3
2016-May-06 03:00 267 0 gusting 2 18.3
2016-May-06 02:55 267 0 gusting 2 18.9
2016-May-06 02:50 267 1 gusting 2 18.9
2016-May-06 02:45 267 0 gusting 1 18.3
2016-May-06 02:40 267 0 gusting 2 18.9
2016-May-06 02:35 267 0 gusting 2 18.3
2016-May-06 02:30 267 0 gusting 2 18.3
2016-May-06 02:25 267 0 gusting 2 18.3
2016-May-06 02:20 267 1 gusting 2 18.3
2016-May-06 02:15 082 0 gusting 2 18.3
2016-May-06 02:10 082 18.3
2016-May-06 02:05 082 0 gusting 1 18.3
2016-May-06 02:00 082 18.3
2016-May-06 01:55 082 18.3
2016-May-06 01:50 082 18.3
2016-May-06 01:45 082 18.3
2016-May-06 01:40 082 18.3
2016-May-06 01:35 082 18.3
2016-May-06 01:30 082 18.3
2016-May-06 01:25 082 18.9
2016-May-06 01:20 082 18.9
2016-May-06 01:15 082 18.9
2016-May-06 01:10 082 18.9
2016-May-06 01:05 082 18.9
2016-May-06 01:00 082 18.9
2016-May-06 00:55 082 18.9
2016-May-06 00:50 082 18.9
2016-May-06 00:40 136 2 gusting 2 19.4
2016-May-06 00:35 136 2 gusting 2 19.4
2016-May-06 00:30 136 2 gusting 2 19.4
2016-May-06 00:25 136 2 gusting 2 19.4
2016-May-06 00:20 136 2 gusting 2 19.4
2016-May-06 00:15 136 2 gusting 2 19.4
2016-May-06 00:10 136 2 gusting 2 19.4
2016-May-06 00:05 136 2 gusting 2 19.4
2016-May-06 00:00 136 2 gusting 2 19.4
2016-May-05 23:55 136 2 gusting 2 19.4
2016-May-05 23:50 136 2 gusting 2 19.4
2016-May-05 23:45 136 2 gusting 2 19.4
2016-May-05 23:40 136 2 gusting 2 19.4
2016-May-05 23:35 136 2 gusting 2 19.4
2016-May-05 23:30 136 2 gusting 2 19.4
2016-May-05 23:25 136 2 gusting 2 19.4
2016-May-05 23:20 136 2 gusting 2 19.4
2016-May-05 23:15 136 2 gusting 2 19.4
2016-May-05 23:10 136 2 gusting 2 19.4
2016-May-05 23:05 136 2 gusting 2 19.4
2016-May-05 23:00 136 2 gusting 2 19.4
2016-May-05 22:55 136 2 gusting 2 19.4
2016-May-05 22:50 136 2 gusting 2 19.4
2016-May-05 22:45 136 2 gusting 2 19.4
2016-May-05 22:40 136 2 gusting 2 19.4
2016-May-05 22:35 136 2 gusting 2 19.4
2016-May-05 22:30 136 2 gusting 2 19.4
2016-May-05 22:25 136 2 gusting 2 19.4
2016-May-05 22:20 136 2 gusting 2 19.4
2016-May-05 22:15 136 2 gusting 2 19.4
2016-May-05 22:10 136 2 gusting 2 19.4
2016-May-05 22:05 136 2 gusting 2 19.4
2016-May-05 22:00 136 2 gusting 2 19.4
2016-May-05 21:55 136 2 gusting 2 19.4
2016-May-05 21:50 136 2 gusting 2 19.4
2016-May-05 21:45 136 2 gusting 2 19.4
2016-May-05 21:40 136 2 gusting 2 19.4
2016-May-05 21:35 136 2 gusting 2 19.4
2016-May-05 21:30 136 2 gusting 2 19.4
2016-May-05 21:25 136 2 gusting 2 19.4
2016-May-05 21:20 136 2 gusting 2 19.4
2016-May-05 21:15 136 2 gusting 2 19.4
2016-May-05 21:10 136 2 gusting 2 19.4
2016-May-05 21:05 136 2 gusting 2 19.4
2016-May-05 21:00 136 2 gusting 2 19.4
2016-May-05 20:55 136 2 gusting 2 19.4
2016-May-05 20:50 136 2 gusting 2 19.4
2016-May-05 20:45 136 2 gusting 2 19.4
2016-May-05 20:40 136 2 gusting 2 19.4
2016-May-05 20:35 136 2 gusting 2 19.4
2016-May-05 20:30 136 2 gusting 2 19.4
2016-May-05 20:25 136 2 gusting 2 19.4
2016-May-05 20:20 136 2 gusting 2 19.4
2016-May-05 20:15 136 2 gusting 2 19.4
2016-May-05 20:10 136 2 gusting 2 19.4
2016-May-05 20:05 136 2 gusting 2 19.4
2016-May-05 20:00 136 2 gusting 2 19.4
2016-May-05 19:55 136 2 gusting 2 19.4
2016-May-05 19:50 136 2 gusting 2 19.4
2016-May-05 19:45 136 2 gusting 2 19.4
2016-May-05 19:40 136 2 gusting 4 19.4
2016-May-05 19:35 125 2 gusting 5 19.4
2016-May-05 19:30 143 2 gusting 5 19.4
2016-May-05 19:25 158 2 gusting 6 19.4
2016-May-05 19:20 169 2 gusting 5 19.4
2016-May-05 19:15 160 1 gusting 6 20.0
2016-May-05 19:05 179 2 gusting 6 20.0
2016-May-05 19:00 179 2 gusting 6 20.0
2016-May-05 18:55 158 3 gusting 6 20.0
2016-May-05 18:50 159 2 gusting 5 20.0
2016-May-05 18:45 210 0 gusting 5 20.0
2016-May-05 18:40 223 2 gusting 5 20.0
2016-May-05 18:35 186 2 gusting 6 20.0
2016-May-05 18:30 193 3 gusting 7 20.6
2016-May-05 18:25 226 5 gusting 7 20.6
2016-May-05 18:20 236 4 gusting 6 20.6
2016-May-05 18:15 207 5 gusting 7 20.6
2016-May-05 18:10 225 5 gusting 10 20.6
2016-May-05 18:05 236 6 gusting 10 21.1
2016-May-05 18:00 240 4 gusting 8 21.1
2016-May-05 17:55 234 6 gusting 10 21.1
2016-May-05 17:50 245 6 gusting 10 20.6
2016-May-05 17:45 229 6 gusting 10 20.6
2016-May-05 17:40 225 6 gusting 10 20.6
2016-May-05 17:35 240 6 gusting 10 20.6
2016-May-05 17:30 236 5 gusting 10 20.6
2016-May-05 17:25 227 7 gusting 13 21.1
2016-May-05 17:20 227 7 gusting 12 21.1
2016-May-05 17:15 236 5 gusting 10 21.1
2016-May-05 17:10 222 6 gusting 10 21.1
2016-May-05 17:05 232 6 gusting 10 21.1
2016-May-05 17:00 227 7 gusting 12 21.1
2016-May-05 16:55 224 7 gusting 12 20.6
2016-May-05 16:50 227 6 gusting 13 20.6
2016-May-05 16:45 220 6 gusting 10 20.6
2016-May-05 16:40 223 6 gusting 11 20.6
2016-May-05 16:35 240 6 gusting 10 20.6
2016-May-05 16:30 238 6 gusting 10 20.6
2016-May-05 16:25 228 6 gusting 11 20.6
2016-May-05 16:20 234 5 gusting 10 20.6
2016-May-05 16:15 236 6 gusting 11 20.6
2016-May-05 16:10 251 5 gusting 8 20.0
2016-May-05 16:05 232 4 gusting 6 20.0
2016-May-05 16:00 193 3 gusting 8 20.0
2016-May-05 15:55 222 5 gusting 8 20.0
2016-May-05 15:50 254 6 gusting 10 20.0
2016-May-05 15:45 226 3 gusting 7 20.0
2016-May-05 15:40 230 4 gusting 11 20.0
2016-May-05 15:35 239 4 gusting 11 20.0
2016-May-05 15:30 235 5 gusting 10 20.0
2016-May-05 15:25 247 4 gusting 8 20.0
2016-May-05 15:20 232 7 gusting 10 19.4
2016-May-05 15:15 231 6 gusting 10 19.4
2016-May-05 15:10 210 6 gusting 10 19.4
2016-May-05 15:05 221 4 gusting 8 20.0
2016-May-05 15:00 235 3 gusting 8 20.0
2016-May-05 14:55 232 5 gusting 8 20.0
2016-May-05 14:50 217 4 gusting 7 20.0
2016-May-05 14:45 250 2 gusting 7 20.0
2016-May-05 14:40 215 4 gusting 8 20.0
2016-May-05 14:35 213 4 gusting 10 20.0
2016-May-05 14:30 225 5 gusting 10 19.4
2016-May-05 14:25 202 6 gusting 10 19.4
2016-May-05 14:20 221 5 gusting 12 19.4
2016-May-05 14:15 254 6 gusting 11 19.4
2016-May-05 14:10 234 5 gusting 10 19.4
2016-May-05 14:05 243 6 gusting 10 20.0
2016-May-05 14:00 234 5 gusting 10 20.0
2016-May-05 13:55 226 3 gusting 7 20.0
2016-May-05 13:50 221 3 gusting 8 19.4
2016-May-05 13:45 226 5 gusting 8 19.4
2016-May-05 13:40 235 6 gusting 10 19.4
2016-May-05 13:35 234 5 gusting 10 19.4
2016-May-05 13:30 212 6 gusting 8 19.4
2016-May-05 13:25 233 6 gusting 10 19.4
2016-May-05 13:20 223 7 gusting 11 19.4
2016-May-05 13:15 241 6 gusting 13 19.4
2016-May-05 13:10 233 6 gusting 10 19.4
2016-May-05 13:05 215 5 gusting 10 20.0
2016-May-05 13:00 230 5 gusting 10 20.0
2016-May-05 12:55 244 4 gusting 7 19.4
2016-May-05 12:50 225 6 gusting 10 19.4
2016-May-05 12:40 225 5 gusting 8 20.0
2016-May-05 12:35 235 5 gusting 8 19.4
2016-May-05 12:30 214 5 gusting 10 19.4
2016-May-05 12:25 223 5 gusting 10 19.4
2016-May-05 12:20 235 5 gusting 8 19.4
2016-May-05 12:15 227 6 gusting 10 19.4
2016-May-05 12:10 223 6 gusting 10 19.4
2016-May-05 12:05 202 4 gusting 8 19.4
2016-May-05 12:00 206 6 gusting 12 19.4
2016-May-05 11:55 231 7 gusting 11 19.4
2016-May-05 11:50 225 6 gusting 11 19.4
2016-May-05 11:45 222 5 gusting 10 19.4
2016-May-05 11:40 229 5 gusting 8 19.4
2016-May-05 11:35 221 4 gusting 7 19.4
2016-May-05 11:30 224 4 gusting 11 19.4
2016-May-05 11:25 199 6 gusting 10 19.4
2016-May-05 11:20 218 5 gusting 8 19.4
2016-May-05 11:15 225 5 gusting 10 19.4
2016-May-05 11:10 232 6 gusting 12 19.4
2016-May-05 11:05 239 5 gusting 10 19.4
2016-May-05 11:00 247 6 gusting 10 19.4
2016-May-05 10:55 242 3 gusting 7 19.4
2016-May-05 10:50 217 6 gusting 10 19.4
2016-May-05 10:45 196 4 gusting 10 20.0
2016-May-05 10:40 231 4 gusting 7 20.0
2016-May-05 10:35 232 4 gusting 7 20.0
2016-May-05 10:30 212 4 gusting 8 19.4
2016-May-05 10:25 220 4 gusting 7 19.4
2016-May-05 10:20 186 4 gusting 8 19.4
2016-May-05 10:15 237 5 gusting 7 19.4
2016-May-05 10:10 200 4 gusting 7 19.4
2016-May-05 10:05 246 4 gusting 7 19.4
2016-May-05 10:00 232 5 gusting 7 19.4
2016-May-05 09:55 232 4 gusting 7 19.4
2016-May-05 09:50 237 4 gusting 6 19.4
2016-May-05 09:45 239 5 gusting 7 19.4
2016-May-05 09:40 222 4 gusting 7 19.4
2016-May-05 09:35 182 2 gusting 5 19.4
2016-May-05 09:30 216 4 gusting 6 18.9
2016-May-05 09:25 186 2 gusting 5 18.9
2016-May-05 09:20 219 2 gusting 4 18.9
2016-May-05 09:15 197 3 gusting 6 19.4
2016-May-05 09:10 182 2 gusting 5 19.4
2016-May-05 09:05 237 2 gusting 6 19.4
2016-May-05 09:00 237 2 gusting 5 19.4
2016-May-05 08:55 239 2 gusting 4 19.4
2016-May-05 08:50 256 0 gusting 4 19.4
2016-May-05 08:45 228 2 gusting 5 19.4
2016-May-05 08:40 205 2 gusting 6 19.4
2016-May-05 08:35 186 1 gusting 2 19.4
2016-May-05 08:30 238 19.4
2016-May-05 08:25 238 19.4
2016-May-05 08:20 243 1 gusting 4 18.9
2016-May-05 08:15 244 1 gusting 4 18.9
2016-May-05 08:10 264 2 gusting 2 18.9
2016-May-05 08:05 310 0 gusting 2 18.9
2016-May-05 08:00 310 0 gusting 2 18.9
2016-May-05 07:55 307 1 gusting 2 18.9
2016-May-05 07:50 311 1 gusting 2 18.3
2016-May-05 07:45 355 1 gusting 2 18.3
2016-May-05 07:40 310 1 gusting 2 18.3
2016-May-05 07:35 355 0 gusting 2 17.8
2016-May-05 07:30 336 1 gusting 2 17.8
2016-May-05 07:25 294 1 gusting 2 17.8
2016-May-05 07:20 310 1 gusting 2 17.8
2016-May-05 07:15 314 1 gusting 2 17.8
2016-May-05 07:10 314 17.8
2016-May-05 07:05 314 17.8
2016-May-05 07:00 314 0 gusting 1 17.8
2016-May-05 06:55 314 0 gusting 2 17.2
2016-May-05 06:50 314 0 gusting 1 17.2
2016-May-05 06:45 314 0 gusting 2 17.2
2016-May-05 06:40 314 1 gusting 2 17.2
2016-May-05 06:30 338 17.2
2016-May-05 06:25 032 0 gusting 2 16.7
2016-May-05 06:20 046 1 gusting 2 16.7
2016-May-05 06:15 022 1 gusting 5 16.7
2016-May-05 06:10 009 0 gusting 2 16.7
2016-May-05 06:05 004 0 gusting 2 16.7
2016-May-05 06:00 335 0 gusting 4 16.7
2016-May-05 05:55 329 16.7
2016-May-05 05:50 329 0 gusting 1 16.7
2016-May-05 05:45 329 16.7
2016-May-05 05:40 329 1 gusting 2 16.7
2016-May-05 05:35 293 1 gusting 2 16.7
2016-May-05 05:30 293 16.7
2016-May-05 05:25 293 0 gusting 1 16.7
2016-May-05 05:20 293 1 gusting 2 16.7
2016-May-05 05:15 293 1 gusting 2 16.7
2016-May-05 05:10 293 1 gusting 2 16.7
2016-May-05 05:00 293 1 gusting 2 16.7
2016-May-05 04:55 293 0 gusting 2 16.7
2016-May-05 04:45 334 1 gusting 2 17.2
2016-May-05 04:40 316 1 gusting 2 16.7
2016-May-05 04:35 317 0 gusting 2 16.7
2016-May-05 04:30 317 0 gusting 2 16.7
2016-May-05 04:20 329 0 gusting 2 16.7
2016-May-05 04:15 329 16.7
2016-May-05 04:10 329 16.7
2016-May-05 04:05 329 16.7
2016-May-05 04:00 329 16.7
2016-May-05 03:55 329 0 gusting 1 16.7
2016-May-05 03:30 329 1 gusting 2 17.2
2016-May-05 03:25 329 1 gusting 2 17.2
2016-May-05 03:20 323 17.2
2016-May-05 03:10 323 0 gusting 2 17.2
2016-May-05 02:45 065 17.2
2016-May-05 02:40 065 17.2
2016-May-05 02:35 065 17.2
2016-May-05 02:30 065 17.2
2016-May-05 02:20 065 17.2
2016-May-05 02:15 065 17.2
2016-May-05 02:10 065 17.8
2016-May-05 02:00 065 17.8
2016-May-05 01:55 065 17.8
2016-May-05 01:50 065 17.8
2016-May-05 01:45 065 17.8
2016-May-05 01:35 065 0 gusting 2 17.8
2016-May-05 01:30 078 0 gusting 1 17.8
2016-May-05 01:25 072 1 gusting 2 17.8
2016-May-05 01:20 123 0 gusting 4 18.3
2016-May-05 01:15 095 1 gusting 2 18.3
2016-May-05 01:10 095 0 gusting 4 18.3
2016-May-05 01:05 068 0 gusting 5 18.3
2016-May-05 01:00 111 1 gusting 6 18.3
2016-May-05 00:55 104 2 gusting 6 18.3
2016-May-05 00:50 090 3 gusting 6 18.3
2016-May-05 00:40 092 4 gusting 6 18.3
2016-May-05 00:35 089 4 gusting 7 18.3
2016-May-05 00:30 088 4 gusting 6 18.3
2016-May-05 00:25 089 2 gusting 6 18.3
2016-May-05 00:20 080 3 gusting 6 18.3
2016-May-05 00:15 093 4 gusting 6 18.3
2016-May-05 00:10 078 4 gusting 7 18.3
2016-May-05 00:05 084 4 gusting 6 18.3
2016-May-05 00:00 091 4 gusting 7 18.3
2016-May-04 23:55 092 4 gusting 7 18.3
2016-May-04 23:50 080 4 gusting 7 18.3
2016-May-04 23:45 096 3 gusting 7 18.3
2016-May-04 23:40 080 1 gusting 6 18.3
2016-May-04 23:35 081 1 gusting 6 18.3
2016-May-04 23:30 093 4 gusting 8 18.3
2016-May-04 23:25 079 2 gusting 6 18.3
2016-May-04 23:15 091 2 gusting 10 18.3
2016-May-04 23:10 083 4 gusting 10 18.3
2016-May-04 23:00 087 3 gusting 6 18.3
2016-May-04 22:55 087 5 gusting 8 18.3
2016-May-04 22:50 083 5 gusting 8 18.3
2016-May-04 22:45 087 5 gusting 7 18.3
2016-May-04 22:40 092 4 gusting 8 18.3
2016-May-04 22:35 092 4 gusting 7 18.3
2016-May-04 22:30 082 4 gusting 6 18.3
2016-May-04 22:25 078 4 gusting 7 18.3
2016-May-04 22:20 080 4 gusting 8 18.3
2016-May-04 22:15 075 5 gusting 7 18.3
2016-May-04 22:10 084 4 gusting 8 18.3
2016-May-04 22:05 087 6 gusting 8 18.9
2016-May-04 22:00 076 5 gusting 10 18.9
2016-May-04 21:55 094 5 gusting 10 18.9
2016-May-04 21:50 089 4 gusting 7 18.9
2016-May-04 21:45 081 6 gusting 10 18.9
2016-May-04 21:40 085 3 gusting 6 18.9
2016-May-04 21:35 088 2 gusting 6 18.9
2016-May-04 21:30 108 2 gusting 6 18.9
2016-May-04 21:25 092 3 gusting 10 18.9
2016-May-04 21:20 116 1 gusting 6 18.9
2016-May-04 21:15 096 4 gusting 7 18.9
2016-May-04 21:10 092 2 gusting 6 18.9
2016-May-04 21:05 210 18.9
2016-May-04 21:00 217 0 gusting 2 18.9
2016-May-04 20:55 217 18.9
2016-May-04 20:50 217 0 gusting 2 18.9
2016-May-04 20:45 217 0 gusting 2 18.9
2016-May-04 20:40 217 0 gusting 2 18.9
2016-May-04 20:35 217 1 gusting 2 18.9
2016-May-04 20:30 217 0 gusting 2 18.9
2016-May-04 20:25 217 0 gusting 2 18.9
2016-May-04 20:20 217 0 gusting 2 18.9
2016-May-04 20:15 217 2 gusting 2 18.9
2016-May-04 20:10 223 3 gusting 5 18.9
2016-May-04 20:05 240 2 gusting 4 18.9
2016-May-04 20:00 222 3 gusting 6 18.9
2016-May-04 19:55 239 4 gusting 6 18.9
2016-May-04 19:50 235 3 gusting 5 18.9
2016-May-04 19:45 246 4 gusting 6 18.9
2016-May-04 19:40 230 4 gusting 7 18.9
2016-May-04 19:35 222 4 gusting 10 19.4
2016-May-04 19:30 237 4 gusting 8 19.4
2016-May-04 19:25 232 5 gusting 10 19.4
2016-May-04 19:20 239 4 gusting 7 19.4
2016-May-04 19:15 226 5 gusting 8 20.0
2016-May-04 19:10 243 6 gusting 10 20.0
2016-May-04 19:05 238 5 gusting 8 20.0
2016-May-04 19:00 260 5 gusting 10 20.0
2016-May-04 18:55 232 4 gusting 8 20.0
2016-May-04 18:50 247 5 gusting 10 20.0
2016-May-04 18:45 253 5 gusting 10 20.6
2016-May-04 18:35 232 6 gusting 11 20.6
2016-May-04 18:30 255 6 gusting 10 20.6
2016-May-04 18:25 253 5 gusting 10 20.0
2016-May-04 18:20 265 6 gusting 10 20.6
2016-May-04 18:15 249 6 gusting 12 20.6
2016-May-04 18:10 256 6 gusting 11 20.6
2016-May-04 18:05 267 6 gusting 12 20.6
2016-May-04 18:00 258 6 gusting 12 20.6